FW1981 Weather Reports


Display with metric or nautical units.
time (UTC)temp
F
wind
direction
speed
MPH
gust
MPH
rain 1hr
in
rain 24hr
in
rain mn
in
humidity
%
barometer
mb
20260901145515 70 262 3.0 6.0 0.00 0.00 0.00 71 1019.4
20260901145022 70 1 2.0 7.0 0.00 0.00 0.00 70 1019.4
20260901144519 70 200 2.0 7.0 0.00 0.00 0.00 67 1019.2
20260901144015 71 203 3.0 7.0 0.00 0.00 0.00 69 1019.1
20260901143522 70 150 2.0 6.0 0.00 0.00 0.00 73 1019.1
20260901143036 69 227 3.0 6.0 0.00 0.00 0.00 71 1019.2
20260901142516 70 222 1.0 5.0 0.00 0.00 0.00 70 1019.1
20260901142022 69 305 2.0 8.0 0.00 0.00 0.00 73 1019.2
20260901141520 69 229 3.0 8.0 0.00 0.00 0.00 74 1019.2
20260901141015 69 229 1.0 8.0 0.00 0.00 0.00 76 1019.2
20260901140533 68 184 1.0 6.0 0.00 0.00 0.00 77 1019.3
20260901140023 68 284 2.0 5.0 0.00 0.00 0.00 76 1019.3
20260901135515 68 237 1.0 4.0 0.00 0.00 0.00 77 1019.4
20260901135023 68 187 2.0 4.0 0.00 0.00 0.00 76 1019.2
20260901134519 68 248 1.0 6.0 0.00 0.00 0.00 76 1019.2
20260901134026 68 238 2.0 6.0 0.00 0.00 0.00 75 1019.4
20260901133522 69 240 0.0 4.0 0.00 0.00 0.00 76 1019.4
20260901133019 69 173 1.0 6.0 0.00 0.00 0.00 76 1019.3
20260901132516 68 162 2.0 6.0 0.00 0.00 0.00 76 1019.2
20260901132033 68 197 2.0 5.0 0.00 0.00 0.00 76 1019.2
20260901131520 68 240 1.0 5.0 0.00 0.00 0.00 77 1019.2
20260901131015 68 202 1.0 5.0 0.00 0.00 0.00 77 1019.1
20260901130522 68 356 2.0 6.0 0.00 0.00 0.00 76 1019.2
20260901130019 68 226 2.0 7.0 0.00 0.00 0.00 76 1019.1
20260901125515 68 217 2.0 7.0 0.00 0.00 0.00 74 1019.2
20260901125033 69 240 1.0 6.0 0.00 0.00 0.00 73 1019.3
20260901124519 70 78 2.0 6.0 0.00 0.00 0.00 72 1019.2
20260901124026 70 259 1.0 7.0 0.00 0.00 0.00 73 1019.4
20260901123522 70 226 2.0 6.0 0.00 0.00 0.00 72 1019.3
20260901123020 69 323 0.0 6.0 0.00 0.00 0.00 72 1019.3
20260901122515 69 252 0.0 5.0 0.00 0.00 0.00 73 1019.3
20260901122027 69 164 1.0 5.0 0.00 0.00 0.00 73 1019.2
20260901121520 69 257 3.0 5.0 0.00 0.00 0.00 71 1019.2
20260901121015 68 271 1.0 5.0 0.00 0.00 0.00 72 1019.0
20260901120523 68 202 2.0 5.0 0.00 0.00 0.00 73 1018.9
20260901120023 68 226 1.0 5.0 0.00 0.00 0.00 75 1018.9
20260901115520 67 209 2.0 5.0 0.00 0.00 0.00 77 1018.8
20260901115026 67 215 2.0 4.0 0.00 0.00 0.00 80 1018.8
20260901114522 66 118 1.0 3.0 0.00 0.00 0.00 82 1018.8
20260901114020 65 141 1.0 2.0 0.00 0.00 0.00 80 1018.8
20260901113515 65 119 0.0 2.0 0.00 0.00 0.00 79 1018.7
20260901113023 67 117 1.0 2.0 0.00 0.00 0.00 78 1018.9
20260901112523 67 210 1.0 1.0 0.00 0.00 0.00 80 1018.9
20260901112019 66 257 0.0 1.0 0.00 0.00 0.00 81 1018.9
20260901111515 65 258 0.0 1.0 0.00 0.00 0.00 80 1019.0
20260901111022 65 350 0.0 0.0 0.00 0.00 0.00 79 1018.9
20260901110519 65 350 0.0 0.0 0.00 0.00 0.00 79 1019.0
20260901110015 65 350 0.0 0.0 0.00 0.00 0.00 81 1018.9
20260901105523 64 350 0.0 0.0 0.00 0.00 0.00 85 1018.9
20260901105026 62 350 0.0 0.0 0.00 0.00 0.00 89 1018.8
20260901104522 60 350 0.0 0.0 0.00 0.00 0.00 90 1018.9
20260901104031 58 350 0.0 0.0 0.00 0.00 0.00 89 1018.8
20260901103527 57 350 0.0 0.0 0.00 0.00 0.00 89 1018.8
20260901103019 57 350 0.0 0.0 0.00 0.00 0.00 88 1018.8
20260901102516 57 350 0.0 0.0 0.00 0.00 0.00 89 1018.6
20260901102022 57 350 0.0 0.0 0.00 0.00 0.00 90 1018.6
20260901101520 57 350 0.0 0.0 0.00 0.00 0.00 92 1018.5
20260901101016 56 350 0.0 0.0 0.00 0.00 0.00 91 1018.5
20260901100523 56 350 0.0 0.0 0.00 0.00 0.00 91 1018.5
20260901100022 56 350 0.0 0.0 0.00 0.00 0.00 92 1018.5
20260901095520 56 350 0.0 0.0 0.00 0.00 0.00 92 1018.5
20260901095015 56 350 0.0 0.0 0.00 0.00 0.00 92 1018.5
20260901094523 56 350 0.0 0.0 0.00 0.00 0.00 91 1018.5
20260901094019 56 350 0.0 0.0 0.00 0.00 0.00 91 1018.6
20260901093515 56 350 0.0 0.0 0.00 0.00 0.00 91 1018.5
20260901093023 56 350 0.0 0.0 0.00 0.00 0.00 91 1018.4
20260901092522 56 350 0.0 0.0 0.00 0.00 0.00 91 1018.5
20260901092020 56 350 0.0 0.0 0.00 0.00 0.00 91 1018.4
20260901091527 55 350 0.0 0.0 0.00 0.00 0.00 91 1018.3
20260901091022 55 350 0.0 0.0 0.00 0.00 0.00 90 1018.4
20260901090531 55 350 0.0 0.0 0.00 0.00 0.00 90 1018.4
20260901090016 55 350 0.0 0.0 0.00 0.00 0.00 89 1018.4
20260901085523 56 350 0.0 1.0 0.00 0.00 0.00 90 1018.5
20260901085020 55 350 0.0 1.0 0.00 0.00 0.00 90 1018.4
20260901084516 55 350 0.0 1.0 0.00 0.00 0.00 90 1018.4
20260901084023 55 340 1.0 1.0 0.00 0.00 0.00 90 1018.4
20260901083520 54 337 1.0 1.0 0.00 0.00 0.00 90 1018.4
20260901083016 54 336 0.0 1.0 0.00 0.00 0.00 90 1018.5
20260901082523 54 336 0.0 0.0 0.00 0.00 0.00 90 1018.4
20260901082020 54 336 0.0 0.0 0.00 0.00 0.00 89 1018.4
20260901081517 54 336 0.0 0.0 0.00 0.00 0.00 89 1018.5
20260901081034 55 336 0.0 0.0 0.00 0.00 0.00 89 1018.4
20260901080520 55 336 0.0 0.0 0.00 0.00 0.00 88 1018.3
20260901080026 56 336 0.0 1.0 0.00 0.00 0.00 88 1018.4
20260901075523 56 336 0.0 1.0 0.00 0.01 0.00 89 1018.3
20260901075020 55 336 0.0 0.0 0.00 0.01 0.00 89 1018.4
20260901074515 55 336 0.0 0.0 0.00 0.01 0.00 88 1018.5
20260901074023 55 336 0.0 0.0 0.00 0.01 0.00 89 1018.6
20260901073520 55 336 0.0 0.0 0.00 0.01 0.00 89 1018.6
20260901073016 55 336 0.0 1.0 0.00 0.01 0.00 89 1018.6
20260901072524 55 336 0.0 1.0 0.00 0.01 0.00 90 1018.6
20260901072024 55 336 0.0 1.0 0.00 0.01 0.00 89 1018.5
20260901071520 55 336 0.0 1.0 0.00 0.01 0.00 89 1018.5
20260901071015 55 336 0.0 0.0 0.00 0.01 0.00 88 1018.5
20260901070533 55 336 0.0 0.0 0.00 0.01 0.00 88 1018.6
20260901070021 56 336 0.0 0.0 0.00 0.01 0.00 88 1018.6
20260901065515 56 336 0.0 0.0 0.00 0.01 0.00 89 1018.6
20260901065023 55 336 0.0 0.0 0.00 0.01 0.00 90 1018.6
20260901064519 54 336 0.0 0.0 0.00 0.01 0.00 90 1018.7
20260901064015 54 336 0.0 0.0 0.00 0.01 0.00 89 1018.6
20260901063523 54 336 0.0 0.0 0.00 0.01 0.00 89 1018.5
20260901063020 54 336 0.0 0.0 0.00 0.01 0.00 89 1018.5
20260901062529 54 336 0.0 0.0 0.00 0.01 0.00 89 1018.3
20260901062016 54 336 0.0 0.0 0.00 0.01 0.00 89 1018.3
20260901061523 54 336 0.0 0.0 0.00 0.01 0.00 89 1018.3
20260901061033 54 336 0.0 0.0 0.00 0.01 0.00 89 1018.3
20260901060520 54 336 0.0 0.0 0.00 0.01 0.00 89 1018.2
20260901060020 54 336 0.0 1.0 0.00 0.01 0.00 90 1018.2
20260901055523 53 336 0.0 1.0 0.00 0.03 0.00 91 1018.2
20260901055020 53 336 0.0 1.0 0.00 0.03 0.00 90 1018.1
20260901054517 53 336 0.0 0.0 0.00 0.03 0.00 89 1018.3
20260901054023 53 336 0.0 0.0 0.00 0.03 0.00 89 1018.2
20260901053522 53 336 0.0 0.0 0.00 0.03 0.00 90 1018.2
20260901053020 53 336 0.0 0.0 0.00 0.03 0.00 89 1018.2
20260901052516 53 336 0.0 0.0 0.00 0.03 0.00 89 1018.4
20260901052023 54 336 0.0 0.0 0.00 0.03 0.00 89 1018.3
20260901051523 54 336 0.0 0.0 0.00 0.03 0.00 89 1018.3
20260901051020 54 336 0.0 0.0 0.00 0.03 0.00 89 1018.4
20260901050516 54 336 0.0 0.0 0.00 0.03 0.00 88 1018.6
20260901050028 54 336 0.0 0.0 0.00 0.03 0.00 88 1018.6
20260901045522 55 336 0.0 0.0 0.00 0.16 0.00 87 1018.6
20260901045020 55 336 0.0 0.0 0.00 0.16 0.00 87 1018.6
20260901044516 55 336 0.0 0.0 0.00 0.16 0.00 86 1018.5
20260901044024 56 336 0.0 0.0 0.00 0.16 0.00 87 1018.5
20260901043523 56 336 0.0 0.0 0.00 0.16 0.00 87 1018.5
20260901043020 55 336 0.0 0.0 0.00 0.16 0.00 87 1018.5
20260901042528 56 336 0.0 0.0 0.00 0.16 0.00 86 1018.4
20260901042023 56 336 0.0 1.0 0.00 0.16 0.00 88 1018.5
20260901041526 55 336 0.0 0.0 0.00 0.16 0.00 88 1018.5
20260901041018 56 336 0.0 0.0 0.00 0.16 0.00 86 1018.5
20260901040515 56 336 0.0 0.0 0.00 0.16 0.00 87 1018.5
20260901040024 56 336 0.0 0.0 0.00 0.16 0.00 87 1018.5
20260901035524 56 336 0.0 0.0 0.00 0.16 0.00 87 1018.3
20260901035020 56 336 0.0 0.0 0.00 0.16 0.00 87 1018.3
20260901034516 56 336 0.0 0.0 0.00 0.16 0.00 88 1018.2
20260901034024 56 336 0.0 1.0 0.00 0.16 0.00 87 1018.2
20260901033523 56 336 0.0 1.0 0.00 0.16 0.00 87 1018.2
20260901033020 56 336 0.0 1.0 0.00 0.16 0.00 88 1018.2
20260901032516 55 336 0.0 0.0 0.00 0.16 0.00 86 1018.1
20260901032024 56 336 0.0 0.0 0.00 0.16 0.00 85 1018.1
20260901031523 57 336 0.0 0.0 0.00 0.16 0.00 85 1018.3
20260901031020 57 336 0.0 0.0 0.00 0.16 0.00 86 1018.2
20260901030518 56 336 0.0 0.0 0.00 0.16 0.00 88 1018.3
20260901030021 56 336 0.0 0.0 0.00 0.16 0.00 87 1018.3
20260901025523 56 336 0.0 0.0 0.00 0.16 0.16 87 1018.3
20260901025022 55 336 0.0 0.0 0.00 0.16 0.16 87 1018.4
20260901024520 55 336 0.0 0.0 0.00 0.16 0.16 85 1018.4
20260901024017 56 336 0.0 0.0 0.00 0.16 0.16 84 1018.4
20260901023524 56 336 0.0 0.0 0.00 0.16 0.16 83 1018.2
20260901023020 57 336 0.0 0.0 0.00 0.16 0.16 83 1018.2
20260901022518 57 336 0.0 0.0 0.00 0.16 0.16 84 1018.3
20260901022016 57 336 0.0 0.0 0.00 0.16 0.16 83 1018.3
20260901021524 58 336 0.0 0.0 0.00 0.16 0.16 82 1018.3
20260901021022 58 336 0.0 0.0 0.00 0.16 0.16 82 1018.3
20260901020520 59 336 0.0 0.0 0.00 0.16 0.16 81 1018.3
20260901020019 59 336 0.0 1.0 0.00 0.16 0.16 80 1018.2
20260901015516 60 336 0.0 1.0 0.00 0.18 0.16 80 1018.2
20260901015024 60 336 0.0 1.0 0.00 0.18 0.16 80 1018.2
20260901014533 60 336 0.0 1.0 0.00 0.18 0.16 80 1018.2
20260901014020 60 338 1.0 1.0 0.00 0.18 0.16 81 1018.2
20260901013519 60 339 0.0 1.0 0.00 0.18 0.16 80 1018.2
20260901013027 60 326 0.0 1.0 0.00 0.18 0.16 80 1018.3
20260901012524 60 309 0.0 1.0 0.00 0.18 0.16 81 1018.3
20260901012023 60 309 0.0 0.0 0.00 0.18 0.16 81 1018.3
20260901011521 60 309 0.0 0.0 0.00 0.18 0.16 80 1018.3
20260901011018 60 309 0.0 0.0 0.00 0.18 0.16 80 1018.3
20260901010516 60 309 0.0 1.0 0.00 0.18 0.16 80 1018.2
20260901010035 60 309 0.0 1.0 0.00 0.18 0.16 80 1018.2
20260901005523 60 309 0.0 1.0 0.00 0.18 0.16 80 1018.0
20260901005020 60 309 0.0 2.0 0.00 0.18 0.16 80 1018.0
20260901004518 61 309 0.0 2.0 0.00 0.18 0.16 80 1018.1
20260901004027 61 326 0.0 2.0 0.00 0.18 0.16 80 1018.1
20260901001021 61 339 0.0 2.0 0.00 0.18 0.16 77 1017.7
20260901000519 61 307 1.0 2.0 0.00 0.18 0.16 77 1017.8
20260901000028 61 300 1.0 2.0 0.00 0.18 0.16 77 1017.7
20260831233521 62 300 0.0 2.0 0.00 0.18 0.16 74 1017.3
20260831233019 62 295 1.0 3.0 0.00 0.18 0.16 74 1017.3
20260831232527 62 296 1.0 3.0 0.00 0.18 0.16 74 1017.3
20260831231517 63 290 0.0 2.0 0.00 0.18 0.16 73 1017.2
20260831225027 64 319 2.0 4.0 0.00 0.18 0.16 71 1016.9
20260831224023 65 312 2.0 4.0 0.00 0.18 0.16 69 1016.6
20260831223532 65 314 2.0 5.0 0.00 0.18 0.16 69 1016.7
20260831223020 65 309 3.0 5.0 0.00 0.18 0.16 68 1016.8
20260831222517 66 320 2.0 8.0 0.00 0.18 0.16 68 1016.8
20260831220527 67 306 5.0 9.0 0.00 0.18 0.16 65 1016.6
20260831215521 67 324 4.0 8.0 0.00 0.18 0.16 65 1016.4
20260831215018 67 318 5.0 8.0 0.00 0.18 0.16 65 1016.3
20260831214516 68 295 3.0 7.0 0.00 0.18 0.16 65 1016.3
20260831214029 68 309 3.0 11.0 0.00 0.18 0.16 64 1016.2
20260831213521 68 328 5.0 12.0 0.00 0.18 0.16 63 1016.2
20260831213019 68 323 6.0 13.0 0.00 0.18 0.16 63 1016.2
20260831212517 68 306 7.0 13.0 0.00 0.18 0.16 63 1016.1
20260831212024 68 278 4.0 9.0 0.00 0.18 0.16 63 1016.1
20260831211524 69 349 5.0 9.0 0.00 0.18 0.16 63 1016.0
20260831211022 69 326 6.0 11.0 0.00 0.18 0.16 62 1015.9
20260831210519 68 315 6.0 14.0 0.00 0.18 0.16 62 1015.9
20260831210025 69 320 8.0 14.0 0.00 0.18 0.16 62 1015.8
20260831205523 68 288 3.0 9.0 0.00 0.18 0.16 64 1015.8
20260831205034 68 290 3.0 5.0 0.00 0.18 0.16 64 1015.9
20260831204521 68 304 3.0 6.0 0.00 0.18 0.16 64 1015.8
20260831204019 68 345 2.0 8.0 0.00 0.18 0.16 62 1015.8
20260831203516 69 338 4.0 8.0 0.00 0.18 0.16 61 1015.8
20260831203035 69 330 3.0 8.0 0.00 0.18 0.16 62 1015.8
20260831202523 68 326 4.0 8.0 0.00 0.18 0.16 62 1015.8
20260831202024 69 338 4.0 10.0 0.00 0.18 0.16 61 1015.7
20260831201528 69 326 4.0 10.0 0.00 0.18 0.16 61 1015.7
20260831201029 69 322 7.0 10.0 0.00 0.18 0.16 59 1015.6
20260831200523 70 266 6.0 11.0 0.00 0.18 0.16 59 1015.6
20260831200022 70 325 7.0 12.0 0.00 0.18 0.16 58 1015.6
20260831195521 71 311 8.0 12.0 0.00 0.18 0.16 57 1015.5
20260831195027 70 328 4.0 12.0 0.00 0.18 0.16 58 1015.4
20260831194524 71 312 6.0 12.0 0.00 0.18 0.16 56 1015.4
20260831194023 71 9 6.0 13.0 0.00 0.18 0.16 58 1015.3
20260831193532 71 347 6.0 13.0 0.00 0.18 0.16 58 1015.3
20260831193019 71 352 7.0 13.0 0.00 0.18 0.16 57 1015.2
20260831192517 70 338 5.0 12.0 0.00 0.18 0.16 57 1015.2
20260831192024 70 314 7.0 12.0 0.00 0.18 0.16 57 1015.0
20260831191524 71 349 6.0 11.0 0.00 0.18 0.16 58 1015.1
20260831191023 71 320 6.0 11.0 0.00 0.18 0.16 56 1015.0
20260831190521 71 350 6.0 11.0 0.00 0.18 0.16 57 1015.0
20260831190030 70 311 6.0 11.0 0.00 0.18 0.16 56 1014.9
20260831185517 70 335 7.0 15.0 0.00 0.18 0.16 57 1014.9
20260831185024 71 334 5.0 15.0 0.00 0.18 0.16 56 1014.8
20260831184523 71 327 5.0 14.0 0.00 0.18 0.16 58 1014.8
20260831184023 71 320 8.0 15.0 0.00 0.18 0.16 57 1014.8
20260831183530 71 27 5.0 13.0 0.00 0.18 0.16 56 1014.7
20260831183017 71 332 6.0 13.0 0.00 0.18 0.16 57 1014.6
20260831182524 71 48 5.0 9.0 0.00 0.18 0.16 58 1014.6
20260831182023 70 296 4.0 12.0 0.00 0.18 0.16 58 1014.5
20260831181521 71 325 4.0 11.0 0.00 0.18 0.16 58 1014.6
20260831181019 70 8 5.0 12.0 0.00 0.18 0.16 59 1014.6
20260831180516 71 1 4.0 12.0 0.00 0.18 0.16 57 1014.7
20260831180024 71 314 6.0 12.0 0.00 0.18 0.16 57 1014.6
20260831175523 71 335 5.0 11.0 0.00 0.18 0.16 57 1014.6
20260831175027 71 286 6.0 13.0 0.00 0.18 0.16 58 1014.5
20260831174519 71 315 5.0 13.0 0.00 0.18 0.16 58 1014.6
20260831174021 71 345 7.0 13.0 0.00 0.18 0.16 55 1014.5
20260831173524 71 243 6.0 11.0 0.00 0.18 0.16 55 1014.6
20260831173028 71 311 3.0 12.0 0.00 0.18 0.16 57 1014.5
20260831172521 70 304 6.0 12.0 0.00 0.18 0.16 57 1014.5
20260831172022 70 313 5.0 12.0 0.00 0.18 0.16 57 1014.6
20260831171517 70 327 6.0 12.0 0.00 0.18 0.16 56 1014.5
20260831171024 71 334 4.0 10.0 0.00 0.18 0.16 58 1014.5
20260831170523 70 309 5.0 11.0 0.00 0.18 0.16 58 1014.4
20260831170022 71 343 6.0 11.0 0.00 0.18 0.16 56 1014.5
20260831165521 71 268 4.0 11.0 0.00 0.18 0.16 56 1014.4
20260831165019 71 330 6.0 11.0 0.00 0.18 0.16 55 1014.5
20260831164518 71 308 6.0 11.0 0.00 0.18 0.16 55 1014.4
20260831164026 71 342 6.0 19.0 0.00 0.18 0.16 57 1014.4
20260831163523 71 272 7.0 19.0 0.00 0.18 0.16 55 1014.4
20260831163022 71 326 6.0 13.0 0.00 0.18 0.16 56 1014.2
20260831162519 71 336 5.0 11.0 0.00 0.18 0.16 57 1014.4
20260831162017 71 304 6.0 11.0 0.00 0.18 0.16 56 1014.4
20260831161537 70 305 4.0 10.0 0.00 0.18 0.16 59 1014.5
20260831161029 70 342 6.0 13.0 0.00 0.18 0.16 58 1014.2
20260831160523 69 330 6.0 13.0 0.00 0.18 0.16 56 1014.3
20260831160022 69 340 7.0 14.0 0.00 0.18 0.16 55 1014.4
20260831155519 69 317 7.0 14.0 0.00 0.18 0.16 55 1014.4
20260831155017 70 303 4.0 14.0 0.00 0.18 0.16 59 1014.3
20260831154524 69 342 7.0 14.0 0.00 0.18 0.16 59 1014.2
20260831154024 69 330 7.0 15.0 0.00 0.18 0.16 57 1014.2
20260831153522 69 297 9.0 15.0 0.00 0.18 0.16 58 1014.3
20260831153021 69 301 8.0 15.0 0.00 0.18 0.16 58 1014.4
20260831152529 69 297 9.0 15.0 0.00 0.18 0.16 58 1014.3
20260831152025 69 338 7.0 12.0 0.00 0.18 0.16 58 1014.3
20260831151524 69 305 5.0 12.0 0.00 0.18 0.16 62 1014.3
20260831151022 68 313 4.0 14.0 0.00 0.18 0.16 63 1014.2
20260831150520 68 298 6.0 14.0 0.00 0.18 0.16 62 1014.2
20260831150018 68 322 6.0 14.0 0.00 0.18 0.16 62 1014.2